Grizzly Air Cargo 5382


PAFA
Fairbanks International Airport
Fairbanks, Alaska, US
PAGA
Edward G Pitka Sr. Airport
Galena, Alaska, US

Activity Log

Date Flight Route Aircraft Duration
No Flights Yet

Route Details

Aircraft Information
Primary: Saab 340AF
Backup: Not Available
Route Data
Distance: 234nm
Sched. Duration: 1h 50m
Avg. Duration: 0h 00m (-150m)
Times Flown: 0
Recm'd Route: FAI J122 GAL
Planned Altitude: 24,000ft
Origin Wx: PAFA 130053Z VRB04KT 10SM SCT075 BKN100 BKN200 22/03 A2968 RMK AO2 SLP056 T02170033
Dest. Wx: PAGA 130056Z AUTO 00000KT 10SM CLR 20/07 A2970 RMK AO2 SLP057 T02000072
Notes:

Financial History
Total Freight: 0lbs
Average Load: 0lbs/flt
Fuel Used: 0lbs
Avg. Fuel Used: 0lbs/flt
Fuel Expense: $0
Avg. Fuel Expense: $0
Avg. Fuel Cost: $0/lbs
Total Gross Income: $0
Pilot Pay: $0
Total Expenses: $0
Total Revenue: $0
Average Revenue: $0